• Join FlightAware (Why Join?)
  • Login
  • US Flag 
Rudolph Flight #1: Arrived! 
09:26AM EST


 

Airport Tracker/Info


-or-


 

Live Flight TrackerFlight Track Log ✈ UAL4530 ✈ 30-Mar-2014 ✈ KOMA - KIAH

Flight Track Log - Related Links

Times and Time Zones

All times are in EDT time to prevent confusion due to time zone crossing. See the UAL4530 flight status page for this flight to view local times or setup timezone preferences in your user account.

Time Position Orientation Groundspeed Altitude Reporting Facility
EDT Latitude Longitude Course Direction KTS MPH feet Rate Location/Type
01:14PM 41.2972 -95.8944 201° Southwest 150 173 1,400  Level Minneapolis Center
01:15PM 41.2403 -95.8869 174° South 182 209 3,800 1,740 Climbing Minneapolis Center
01:16PM 41.1967 -95.8828 176° South 188 216 5,000 1,860 Climbing Minneapolis Center
01:16PM 41.1772 -95.8833 181° South 245 282 5,700 2,580 Climbing Minneapolis Center
01:17PM 40.9349 -95.8546 207° Southwest  Level FlightAware Approximate
01:17PM 41.1264 -95.8831 180° South 224 258 7,700  Level Minneapolis Center
01:18PM 40.8399 -95.9179 207° Southwest  Level FlightAware Approximate
01:18PM 41.0586 -95.8867 182° South 237 273 9,900  Level Minneapolis Center
01:19PM 40.7415 -95.9710 201° Southwest  Level FlightAware Approximate
01:19PM 40.9794 -95.8844 179° South 261 300 10,700  Level Minneapolis Center
01:20PM 40.8883 -95.8922 184° South 313 360 11,900 1,260 Climbing Minneapolis Center
01:21PM 40.8047 -95.9406 204° Southwest 325 374 13,400 1,440 Climbing Minneapolis Center
01:22PM 40.7011 -96.0000 204° Southwest 331 381 14,900 1,380 Climbing Minneapolis Center
01:23PM 40.6119 -96.0494 203° Southwest 341 392 16,300 1,320 Climbing Minneapolis Center
01:24PM 40.5231 -96.0997 203° Southwest 343 395 17,700 1,140 Climbing Minneapolis Center
01:25PM 40.4350 -96.1481 203° Southwest 343 395 18,700 960 Climbing Minneapolis Center
01:26PM 40.3419 -96.2008 203° Southwest 353 406 19,700 960 Climbing Minneapolis Center
01:27PM 40.2044 -96.2767 203° Southwest 366 421 21,200 960 Climbing Kansas City Center
01:28PM 40.1522 -96.3042 202° Southwest 369 425 21,800 1,200 Climbing Minneapolis Center
01:29PM 40.0892 -96.3392 203° Southwest 372 428 22,500 1,080 Climbing Kansas City Center
01:30PM 40.0039 -96.3875 203° Southwest 372 428 23,500 1,200 Climbing Kansas City Center
01:30PM 39.9414 -96.4217 203° Southwest 372 428 24,400 1,200 Climbing Minneapolis Center
01:31PM 39.8458 -96.4728 202° Southwest 372 428 25,400 1,020 Climbing Minneapolis Center
01:32PM 39.7922 -96.5031 203° Southwest 374 430 26,000 900 Climbing Kansas City Center
01:33PM 39.7078 -96.5492 203° Southwest 371 427 26,800 960 Climbing Kansas City Center
01:34PM 39.6008 -96.6067 203° Southwest 373 429 28,000 960 Climbing Kansas City Center
01:35PM 39.5097 -96.6556 202° Southwest 371 427 28,900 960 Climbing Kansas City Center
01:36PM 39.4031 -96.7128 203° Southwest 372 428 30,100 1,020 Climbing Kansas City Center
01:37PM 39.3125 -96.7625 203° Southwest 372 428 31,100 960 Climbing Kansas City Center
01:38PM 39.2019 -96.8197 202° Southwest 377 434 32,200 960 Climbing Kansas City Center
01:39PM 39.1097 -96.8708 203° Southwest 379 436 33,100 960 Climbing Kansas City Center
01:40PM 39.0003 -96.9289 202° Southwest 378 435 34,300 1,080 Climbing Kansas City Center
01:41PM 38.8953 -96.9853 203° Southwest 384 442 35,400 780 Climbing Kansas City Center
01:42PM 38.7983 -97.0375 203° Southwest 381 438 36,000 240 Climbing Kansas City Center
01:43PM 38.6978 -97.0900 202° Southwest 387 445 36,000  Level Kansas City Center
01:44PM 38.5894 -97.1356 198° South 409 471 36,000  Level Kansas City Center
01:45PM 38.4661 -97.1319 179° South 440 506 36,000  Level Kansas City Center
01:46PM 38.3461 -97.1264 178° South 436 502 36,000  Level Kansas City Center
01:47PM 38.2236 -97.1211 178° South 436 502 36,000  Level Kansas City Center
01:48PM 38.0750 -97.1142 178° South 440 506 36,000  Level Kansas City Center
01:49PM 37.9522 -97.1089 178° South 440 506 36,000  Level Kansas City Center
01:50PM 37.8292 -97.1039 178° South 440 506 36,000  Level Kansas City Center
01:51PM 37.7053 -97.0978 178° South 441 507 36,000  Level Kansas City Center
01:52PM 37.5825 -97.0933 178° South 441 507 36,000  Level Kansas City Center
01:53PM 37.4594 -97.0883 178° South 441 507 36,000  Level Kansas City Center
01:54PM 37.3111 -97.0808 178° South 441 507 36,000  Level Kansas City Center
01:55PM 37.1875 -97.0758 178° South 441 507 36,000  Level Kansas City Center
01:56PM 37.0628 -97.0706 178° South 442 509 36,000  Level Kansas City Center
01:57PM 36.9383 -97.0642 178° South 443 510 36,000  Level Kansas City Center
01:58PM 36.8147 -97.0600 178° South 444 511 36,000  Level Kansas City Center
02:00PM 36.6925 -97.0564 179° South 442 509 36,000  Level Kansas City Center
02:01PM 36.5492 -97.0486 178° South 444 511 36,000  Level Kansas City Center
02:02PM 36.4247 -97.0447 179° South 446 513 36,000  Level Kansas City Center
02:03PM 36.3003 -97.0386 178° South 446 513 36,000 -180 Level Kansas City Center
02:04PM 36.1753 -97.0333 178° South 446 513 35,700 -540 Descending Kansas City Center
02:05PM 36.0264 -97.0275 178° South 447 514 35,000 -360 Descending Kansas City Center
02:06PM 35.9033 -97.0225 178° South 442 509 35,000  Level Kansas City Center
02:07PM 35.7794 -97.0175 178° South 443 510 35,000  Level Kansas City Center
02:08PM 35.6561 -97.0122 178° South 442 509 35,000  Level Kansas City Center
02:08PM 35.6078 -97.0103 178° South 441 507 35,000  Level Fort Worth Center
02:09PM 35.4606 -97.0044 178° South 440 506 35,000  Level Fort Worth Center
02:10PM 35.3383 -96.9992 178° South 436 502 35,000  Level Fort Worth Center
02:11PM 35.2161 -96.9953 179° South 436 502 35,000  Level Fort Worth Center
02:12PM 35.0936 -96.9808 174° South 437 503 35,000  Level Fort Worth Center
02:13PM 34.9700 -96.9647 174° South 442 509 35,000  Level Fort Worth Center
02:15PM 34.8478 -96.9486 174° South 442 509 35,000  Level Fort Worth Center
02:16PM 34.7000 -96.9286 174° South 442 509 35,000  Level Fort Worth Center
02:17PM 34.5761 -96.9119 174° South 444 511 35,000  Level Fort Worth Center
02:18PM 34.4525 -96.8953 174° South 446 513 35,000  Level Fort Worth Center
02:19PM 34.3286 -96.8781 173° South 446 513 35,000  Level Fort Worth Center
02:20PM 34.2069 -96.8619 174° South 443 510 35,000  Level Fort Worth Center
02:21PM 34.0800 -96.8439 173° South 444 511 35,000  Level Fort Worth Center
02:22PM 33.9569 -96.8272 174° South 444 511 35,000  Level Fort Worth Center
02:23PM 33.8083 -96.8072 174° South 445 512 35,000  Level Fort Worth Center
02:24PM 33.6839 -96.7917 174° South 446 513 35,000  Level Fort Worth Center
02:25PM 33.5611 -96.7756 174° South 444 511 35,000  Level Fort Worth Center
02:26PM 33.4397 -96.7592 174° South 443 510 35,000  Level Fort Worth Center
02:27PM 33.3183 -96.7431 174° South 441 507 35,000  Level Fort Worth Center
02:28PM 33.1967 -96.7278 174° South 440 506 35,000  Level Fort Worth Center
02:29PM 33.0728 -96.7122 174° South 441 507 35,000  Level Fort Worth Center
02:30PM 32.9244 -96.6936 174° South 441 507 35,000  Level Fort Worth Center
02:31PM 32.8006 -96.6769 174° South 442 509 35,000  Level Fort Worth Center
02:32PM 32.6761 -96.6617 174° South 443 510 35,000  Level Fort Worth Center
02:33PM 32.5533 -96.6467 174° South 443 510 35,000  Level Fort Worth Center
02:34PM 32.4311 -96.6308 174° South 443 510 35,000  Level Fort Worth Center
02:35PM 32.3131 -96.6156 174° South 434 499 35,000  Level Fort Worth Center
02:36PM 32.1942 -96.6006 174° South 431 496 35,000  Level Fort Worth Center
02:37PM 32.0492 -96.5836 174° South 431 496 35,000 -120 Level Fort Worth Center
02:38PM 31.9278 -96.5675 174° South 433 498 34,800 -600 Descending Fort Worth Center
02:39PM 31.8067 -96.5522 174° South 434 499 33,800 -1,560 Descending Fort Worth Center
02:40PM 31.6847 -96.5372 174° South 437 503 31,600 -2,160 Descending Fort Worth Center
02:41PM 31.5619 -96.5206 173° South 442 509 29,300 -1,260 Descending Fort Worth Center
02:42PM 31.4144 -96.4772 166° South 451 519 29,000 -300 Descending Fort Worth Center
02:43PM 31.2939 -96.4314 162° South 454 522 28,700 -1,260 Descending Fort Worth Center
02:45PM 31.1756 -96.3822 160° South 454 522 26,500 -2,340 Descending Fort Worth Center
02:46PM 31.0686 -96.3050 148° Southeast 451 519 23,900 -2,520 Descending Fort Worth Center
02:47PM 30.9678 -96.2319 148° Southeast 433 498 21,400 -2,580 Descending Fort Worth Center
02:48PM 30.8600 -96.1536 148° Southeast 426 490 18,900 -2,460 Descending Houston Center
02:48PM 30.8275 -96.1289 147° Southeast 429 494 18,200 -1,860 Descending Houston Center
02:48PM 30.7797 -96.0972 150° Southeast 418 481 17,400 -2,160 Descending Houston Center
02:49PM 30.7322 -96.0614 147° Southeast 412 474 16,000 -2,580 Descending Houston Center
02:49PM 30.6836 -96.0281 149° Southeast 383 441 14,800 -2,460 Descending Houston Center
02:50PM 30.6031 -95.9692 148° Southeast 382 440 12,600 -2,040 Descending Houston Center
02:51PM 30.5556 -95.9333 147° Southeast 383 441 11,500 -2,100 Descending Houston Center
02:51PM 30.5136 -95.9069 152° Southeast 363 418 10,500 -1,500 Descending Houston Center
02:52PM 30.4542 -95.8628 147° Southeast 366 421 10,000 -540 Descending Houston Center
02:52PM 30.4283 -95.8442 148° Southeast 330 380 10,000  Level Houston Center
02:53PM 30.3764 -95.8108 151° Southeast 343 395 10,000 -300 Level Houston Center
02:53PM 30.3497 -95.8072 173° South 288 331 9,700 -900 Descending Houston Center
02:54PM 30.2983 -95.7875 162° South 309 356 9,100 -1,020 Descending Houston Center
02:54PM 30.2739 -95.7797 165° South 283 326 8,700 -1,020 Descending Houston Center
02:55PM 30.2233 -95.7622 163° South 286 329 8,100 -1,080 Descending Houston Center
02:55PM 30.1917 -95.7531 166° South 282 325 7,600 -1,320 Descending Houston Center
02:56PM 30.1200 -95.7253 161° South 265 305 6,400 -1,020 Descending Houston Center
02:57PM 30.0958 -95.6853 125° Southeast 273 314 5,800 -1,080 Descending Houston Center
02:57PM 30.0803 -95.6553 121° Southeast 269 310 5,300 -1,380 Descending Houston Center
02:58PM 30.0517 -95.5986 120° Southeast 269 310 4,400 -1,320 Descending Houston Center
02:59PM 30.0419 -95.5800 121° Southeast 255 293 4,000 -1,260 Descending Houston Center
02:59PM 30.0167 -95.5314 121° Southeast 254 292 3,100 -1,200 Descending Houston Center
03:00PM 30.0086 -95.5139 118° Southeast 232 267 2,800 -1,260 Descending Houston Center
03:00PM 30.0081 -95.4592 91° East 250 288 1,800 -1,020 Descending Houston Center
03:01PM 30.0058 -95.4372 97° East 202 232 1,700 -600 Descending Houston Center
03:01PM 30.0075 -95.4056 87° East 199 229 1,200 -1,020 Descending Houston Center
03:02PM 30.0078 -95.3886 89° East 121 139 700 -780 Descending Houston Center
03:02PM 30.0061 -95.3611 94° East 160 184 400 -420 Descending Houston Center